Weather History for Homestead AFB, FL

Change the Weather History Date:

Monday, September 9, 2013

  Actual Average Record
Temperature  
Mean Temperature 82 °F -  
Max Temperature 87 °F 90 °F 95 °F (1987)
Min Temperature 76 °F 72 °F 61 °F (1950)
Cooling Degree Days 16    
Growing Degree Days 32 (Base 50)    
Moisture  
Dew Point 75 °F    
Average Humidity 80    
Maximum Humidity 91    
Minimum Humidity 67    
Precipitation  
Precipitation 0.00 in - - ()
Sea Level Pressure  
Sea Level Pressure 29.96 in    
Wind  
Wind Speed 5 mph (NE)    
Max Wind Speed 15 mph    
Max Gust Speed 21 mph    
Visibility 10 miles    
Events      
Averages and records for this station are not official NWS values.
T = Trace of Precipitation, MM = Missing Value Source: NWS Daily Summary

Daily Weather History Graph

Daily Weather History Graph

Search for Another Location

Airport:

Trip Planner

Search our weather history database for the weather conditions in past years. The results will help you decide how hot, cold, wet, or windy it might be!

Date:

Astronomy

Sep. 09, 2013 Rise Set
Actual Time 7:05 AM EDT 7:31 PM EDT
Civil Twilight 6:42 AM EDT 7:54 PM EDT
Nautical Twilight 6:15 AM EDT 8:21 PM EDT
Astronomical Twilight 5:47 AM EDT 8:49 PM EDT
Moon 10:54 AM EDT (9/9) 10:19 PM EDT (9/9)
Length of Visible Light 13h 12m
Length of Day
12h 26m
Waxing Crescent, 19% of the Moon is Illuminated
Sep 9
Waxing Crescent
Sep 12
First Quarter
Sep 19
Full
Sep 26
Last Quarter
Oct 4
New

Hourly Weather History & Observations

Time (EDT) Temp. Heat Index Dew Point Humidity Pressure Visibility Wind Dir Wind Speed Gust Speed Precip Events Conditions
12:58 AM 79.2 °F - 74.8 °F 87% 29.95 in 10.0 mi NE 2.3 mph - N/A   Clear
1:58 AM 78.1 °F - 74.5 °F 89% 29.94 in 10.0 mi NNW 3.5 mph - N/A   Clear
2:58 AM 77.2 °F - 74.5 °F 91% 29.92 in 10.0 mi North 1.2 mph - N/A   Clear
3:58 AM 78.6 °F - 74.5 °F 87% 29.91 in 10.0 mi North 4.6 mph - N/A   Partly Cloudy
4:14 AM 78.8 °F - 73.4 °F 83% 29.90 in 10.0 mi North 3.5 mph - N/A   Light Drizzle
4:25 AM 78.8 °F - 73.4 °F 83% 29.90 in 10.0 mi NNE 3.5 mph - N/A   Partly Cloudy
4:58 AM 77.9 °F - 74.8 °F 90% 29.91 in 10.0 mi NE 2.3 mph - 0.00 in   Clear
5:58 AM 77.2 °F - 73.8 °F 89% 29.93 in 10.0 mi North 3.5 mph - N/A   Partly Cloudy
6:58 AM 76.6 °F - 73.8 °F 91% 29.93 in 10.0 mi NNE 2.3 mph - N/A   Clear
7:58 AM 77.7 °F - 74.7 °F 90% 29.96 in 10.0 mi North 5.8 mph - N/A   Clear
8:58 AM 79.3 °F - 73.8 °F 83% 29.98 in 10.0 mi NE 10.4 mph - N/A   Scattered Clouds
9:58 AM 83.5 °F 90.3 °F 74.1 °F 73% 29.99 in 10.0 mi ENE 8.1 mph - N/A   Clear
10:58 AM 85.6 °F 95.5 °F 76.1 °F 73% 30.00 in 10.0 mi ENE 9.2 mph - N/A   Clear
11:58 AM 86.4 °F 96.0 °F 75.7 °F 70% 30.00 in 10.0 mi ENE 6.9 mph - N/A   Partly Cloudy
12:58 PM 87.1 °F 96.8 °F 75.2 °F 68% 29.99 in 10.0 mi ENE 12.7 mph - N/A   Partly Cloudy
1:58 PM 87.3 °F 96.8 °F 75.2 °F 67% 29.98 in 10.0 mi East 10.4 mph - N/A   Clear
2:58 PM 87.3 °F 97.7 °F 75.9 °F 69% 29.96 in 10.0 mi East 15.0 mph 20.7 mph N/A   Clear
3:58 PM 83.3 °F 90.5 °F 74.5 °F 75% 29.96 in 10.0 mi East 9.2 mph - N/A   Clear
4:58 PM 85.5 °F 93.0 °F 73.9 °F 68% 29.95 in 10.0 mi East 9.2 mph - N/A   Clear
5:58 PM 84.4 °F 92.0 °F 74.7 °F 72% 29.95 in 10.0 mi East 6.9 mph - N/A   Clear
6:58 PM 82.9 °F 90.2 °F 75.2 °F 77% 29.98 in 10.0 mi East 6.9 mph - N/A   Partly Cloudy
7:58 PM 81.9 °F 88.9 °F 75.7 °F 82% 29.97 in 10.0 mi East 5.8 mph - N/A   Clear
8:58 PM 81.3 °F 87.8 °F 75.7 °F 83% 29.98 in 10.0 mi East 5.8 mph - N/A   Partly Cloudy
9:47 PM 80.6 °F 86.2 °F 75.2 °F 84% 29.99 in 10.0 mi ESE 3.5 mph - N/A   Light Drizzle
9:56 PM 80.6 °F 86.2 °F 75.2 °F 84% 29.99 in 10.0 mi East 4.6 mph - N/A   Scattered Clouds
9:58 PM 80.6 °F 86.2 °F 75.2 °F 84% 30.00 in 10.0 mi ENE 4.6 mph - 0.00 in   Scattered Clouds
10:58 PM 81.5 °F 87.6 °F 74.8 °F 80% 30.00 in 10.0 mi ENE 5.8 mph - N/A   Partly Cloudy
11:58 PM 79.2 °F - 72.9 °F 81% 29.99 in 10.0 mi NE 5.8 mph - N/A   Clear